GW3945 Weather Reports


time (UTC)temp
C
wind
direction
speed
KPH
gust
KPH
rain 1hr
cm
rain 24hr
cm
rain mn
cm
humidity
%
barometer
mb
20260504081927 11 171 0.0 0.0 0.00 0.00 0.00 69 1012.0
20260504081424 11 169 0.0 0.0 0.00 0.00 0.00 69 1012.1
20260504080920 11 172 0.0 0.0 0.00 0.00 0.00 69 1012.0
20260504080417 11 171 0.0 0.0 0.00 0.00 0.00 68 1012.2
20260504070344 10 173 0.0 0.0 0.00 0.00 0.00 70 1012.6
20260504050732 12 177 0.0 0.0 0.00 0.00 0.00 59 1013.5
20260504050229 12 174 0.0 0.0 0.00 0.00 0.00 60 1013.5
20260504045726 12 175 0.0 0.0 0.00 0.00 0.00 62 1013.6
20260504045221 12 172 0.0 0.0 0.00 0.00 0.00 60 1013.5
20260504044719 12 174 0.0 0.0 0.00 0.00 0.00 59 1013.7
20260504044216 12 176 0.0 0.0 0.00 0.00 0.00 58 1013.8
20260504043714 12 178 0.0 0.0 0.00 0.00 0.00 59 1013.6
20260504043210 12 178 0.0 0.0 0.00 0.00 0.00 60 1013.6
20260504042708 13 178 0.0 0.0 0.00 0.00 0.00 57 1013.8
20260504042204 13 178 0.0 0.0 0.00 0.00 0.00 56 1013.7
20260504041700 13 175 0.0 0.0 0.00 0.00 0.00 56 1013.5
20260504041156 13 168 0.0 0.0 0.00 0.00 0.00 55 1013.4
20260504040653 13 169 0.0 0.0 0.00 0.00 0.00 54 1013.7
20260504040150 13 171 0.0 0.0 0.00 0.00 0.00 54 1013.5
20260504035647 13 122 0.0 0.0 0.00 0.00 0.00 53 1013.4
20260504035144 14 164 0.0 0.0 0.00 0.00 0.00 53 1013.3
20260504034641 13 160 0.0 0.0 0.00 0.00 0.00 54 1013.0
20260504034138 13 168 0.0 0.0 0.00 0.00 0.00 54 1013.0
20260504033636 13 165 0.0 0.0 0.00 0.00 0.00 54 1013.2
20260504033133 14 171 0.0 0.0 0.00 0.00 0.00 53 1013.4
20260504032629 14 171 0.0 0.0 0.00 0.00 0.00 52 1013.4
20260504032127 13 163 0.0 0.0 0.00 0.00 0.00 54 1013.2
20260504031624 13 174 0.0 0.0 0.00 0.00 0.00 54 1013.3
20260504031120 13 174 1.6 3.2 0.00 0.00 0.00 54 1013.3
20260504030617 13 174 0.0 0.0 0.00 0.00 0.00 53 1013.7
20260504030114 13 171 0.0 0.0 0.00 0.00 0.00 54 1013.7
20260504025610 13 170 0.0 0.0 0.00 0.00 0.00 54 1013.6
20260504025107 13 171 0.0 0.0 0.00 0.00 0.00 54 1014.0
20260504024604 13 177 0.0 0.0 0.00 0.00 0.00 55 1014.0
20260504024101 13 169 0.0 0.0 0.00 0.00 0.00 54 1013.8
20260504023557 13 172 0.0 0.0 0.00 0.00 0.00 58 1013.8
20260504023054 13 174 0.0 0.0 0.00 0.00 0.00 62 1013.9
20260504022550 13 177 0.0 0.0 0.00 0.00 0.00 60 1013.9
20260504022046 13 177 0.0 0.0 0.00 0.00 0.00 56 1014.0
20260504021544 13 177 0.0 0.0 0.00 0.00 0.00 62 1013.8
20260504021040 14 177 0.0 0.0 0.00 0.00 0.00 58 1013.9
20260504020537 14 177 0.0 0.0 0.00 0.00 0.00 59 1013.9
20260504020034 14 177 0.0 0.0 0.00 0.00 0.00 60 1013.7
20260504015530 15 177 0.0 0.0 0.00 0.00 0.00 53 1013.5
20260504015026 15 178 0.0 0.0 0.00 0.00 0.00 50 1013.7
20260504014523 15 176 0.0 0.0 0.00 0.00 0.00 50 1013.6
20260504014020 15 176 0.0 0.0 0.00 0.00 0.00 50 1013.6
20260504013518 15 177 0.0 0.0 0.00 0.00 0.00 48 1013.6
20260504013014 15 197 0.0 0.0 0.00 0.00 0.00 48 1013.7
20260504012512 15 173 0.0 0.0 0.00 0.00 0.00 48 1013.4
20260504012010 15 195 0.0 0.0 0.00 0.00 0.00 47 1013.5
20260504011506 15 174 0.0 0.0 0.00 0.00 0.00 49 1013.2
20260504011002 15 171 0.0 0.0 0.00 0.00 0.00 50 1013.2
20260504010458 15 171 0.0 0.0 0.00 0.00 0.00 49 1013.3
20260504005954 15 188 0.0 0.0 0.00 0.00 0.00 47 1013.3
20260504005451 15 175 0.0 0.0 0.00 0.00 0.00 48 1013.0
20260504004948 16 173 0.0 0.0 0.00 0.00 0.00 48 1013.2
20260504004446 16 173 0.0 0.0 0.00 0.00 0.00 47 1013.3
20260504003943 16 172 0.0 0.0 0.00 0.00 0.00 48 1013.2
20260504003439 16 172 0.0 0.0 0.00 0.00 0.00 48 1013.0
20260504002936 16 172 0.0 0.0 0.00 0.00 0.00 47 1013.3
20260504002433 16 170 0.0 0.0 0.00 0.00 0.00 46 1013.3
20260504001930 16 173 0.0 0.0 0.00 0.00 0.00 46 1013.5
20260504001427 16 170 0.0 0.0 0.00 0.00 0.00 45 1013.5
20260504000924 16 172 0.0 0.0 0.00 0.00 0.00 46 1013.4
20260504000423 16 174 0.0 0.0 0.00 0.00 0.00 44 1013.7
20260503235918 17 172 0.0 0.0 0.00 0.00 0.00 44 1013.5
20260503235416 17 173 0.0 0.0 0.00 0.00 0.00 44 1013.5
20260503234914 17 172 0.0 0.0 0.00 0.00 0.00 43 1013.7
20260503234411 17 176 0.0 0.0 0.00 0.00 0.00 43 1013.6
20260503233909 17 174 0.0 0.0 0.00 0.00 0.00 42 1013.8
20260503233405 17 172 0.0 0.0 0.00 0.00 0.00 43 1013.7
20260503232901 17 166 0.0 0.0 0.00 0.00 0.00 43 1013.5
20260503232359 17 159 0.0 0.0 0.00 0.00 0.00 44 1013.9
20260503231856 17 172 0.0 0.0 0.00 0.00 0.00 43 1013.9
20260503231353 17 176 0.0 0.0 0.00 0.00 0.00 43 1014.1
20260503230849 17 167 0.0 0.0 0.00 0.00 0.00 42 1014.2
20260503230346 17 177 0.0 0.0 0.00 0.00 0.00 45 1014.2
20260503225844 18 151 0.0 0.0 0.00 0.00 0.00 41 1014.3
20260503225340 18 170 0.0 0.0 0.00 0.00 0.00 41 1014.4
20260503224836 18 225 1.6 3.2 0.00 0.00 0.00 39 1014.4
20260503224333 18 168 0.0 0.0 0.00 0.00 0.00 39 1014.3
20260503223831 18 207 0.0 0.0 0.00 0.00 0.00 38 1014.3
20260503223329 18 214 0.0 1.6 0.00 0.00 0.00 37 1014.5
20260503222824 18 171 0.0 0.0 0.00 0.00 0.00 40 1014.5
20260503222323 18 157 4.8 4.8 0.00 0.00 0.00 38 1014.6
20260503221820 18 159 0.0 0.0 0.00 0.00 0.00 41 1014.6
20260503221319 18 177 0.0 0.0 0.00 0.00 0.00 40 1014.6
20260503220815 18 174 0.0 0.0 0.00 0.00 0.00 40 1014.8
20260503220312 18 164 0.0 0.0 0.00 0.00 0.00 40 1014.5
20260503215808 18 164 0.0 0.0 0.00 0.00 0.00 40 1014.7
20260503215306 19 197 0.0 0.0 0.00 0.00 0.00 40 1014.8
20260503214804 19 180 0.0 0.0 0.00 0.00 0.00 36 1015.0
20260503214300 19 212 1.6 3.2 0.00 0.00 0.00 36 1014.9
20260503213758 20 180 0.0 0.0 0.00 0.00 0.00 34 1015.0
20260503213255 19 180 0.0 0.0 0.00 0.00 0.00 38 1015.1
20260503212752 19 131 0.0 0.0 0.00 0.00 0.00 37 1015.3
20260503212250 18 186 0.0 0.0 0.00 0.00 0.00 42 1015.5
20260503211747 18 178 0.0 0.0 0.00 0.00 0.00 40 1015.3
20260503211243 19 152 0.0 0.0 0.00 0.00 0.00 39 1015.7
20260503210738 18 212 0.0 0.0 0.00 0.00 0.00 40 1015.5
20260503210236 18 166 0.0 0.0 0.00 0.00 0.00 39 1015.6
20260503205731 18 216 0.0 0.0 0.00 0.00 0.00 39 1015.7
20260503205228 18 160 0.0 0.0 0.00 0.00 0.00 38 1015.8
20260503204724 19 184 0.0 0.0 0.00 0.00 0.00 38 1016.1
20260503204222 18 178 0.0 0.0 0.00 0.00 0.00 36 1016.1
20260503203719 19 174 0.0 0.0 0.00 0.00 0.00 40 1016.2
20260503203217 19 221 1.6 3.2 0.00 0.00 0.00 36 1016.1
20260503202714 19 218 3.2 8.0 0.00 0.00 0.00 35 1016.2
20260503202212 18 254 1.6 3.2 0.00 0.00 0.00 36 1016.2
20260503201709 18 207 0.0 0.0 0.00 0.00 0.00 42 1016.4
20260503201207 18 182 0.0 0.0 0.00 0.00 0.00 40 1016.5
20260503200703 17 174 0.0 1.6 0.00 0.00 0.00 39 1016.6
20260503200159 17 169 1.6 1.6 0.00 0.00 0.00 38 1016.6
20260503195656 18 171 1.6 1.6 0.00 0.00 0.00 39 1017.1
20260503195153 18 166 0.0 0.0 0.00 0.00 0.00 41 1017.0
20260503194650 18 183 0.0 0.0 0.00 0.00 0.00 37 1017.1
20260503194145 17 164 0.0 0.0 0.00 0.00 0.00 37 1017.2
20260503193643 18 168 0.0 0.0 0.00 0.00 0.00 39 1017.5
20260503193138 18 239 3.2 8.0 0.00 0.00 0.00 37 1017.4
20260503192634 18 158 0.0 0.0 0.00 0.00 0.00 40 1017.7
20260503192130 17 178 0.0 0.0 0.00 0.00 0.00 40 1017.4
20260503191627 17 173 0.0 0.0 0.00 0.00 0.00 39 1017.5
20260503191124 17 161 0.0 0.0 0.00 0.00 0.00 42 1017.5
20260503190621 16 233 0.0 0.0 0.00 0.00 0.00 41 1017.8
20260503190118 16 183 0.0 0.0 0.00 0.00 0.00 40 1017.9
20260503185614 17 141 0.0 0.0 0.00 0.00 0.00 42 1017.9
20260503185114 17 238 1.6 8.0 0.00 0.00 0.00 38 1018.1
20260503184610 17 179 0.0 0.0 0.00 0.00 0.00 39 1018.2
20260503184106 17 168 0.0 1.6 0.00 0.00 0.00 39 1018.0
20260503183603 16 256 1.6 3.2 0.00 0.00 0.00 39 1018.2
20260503183101 16 171 0.0 0.0 0.00 0.00 0.00 42 1018.1
20260503182559 16 168 0.0 0.0 0.00 0.00 0.00 41 1018.0
20260503182056 16 166 0.0 0.0 0.00 0.00 0.00 39 1018.2
20260503181553 16 177 1.6 3.2 0.00 0.00 0.00 40 1018.6
20260503181050 16 172 0.0 0.0 0.00 0.00 0.00 40 1018.4
20260503180547 15 164 0.0 0.0 0.00 0.00 0.00 41 1018.5
20260503180044 16 176 0.0 0.0 0.00 0.00 0.00 40 1018.7
20260503175541 16 177 1.6 3.2 0.00 0.00 0.00 42 1018.6
20260503175039 15 145 0.0 0.0 0.00 0.00 0.00 43 1018.6
20260503174536 16 158 0.0 0.0 0.00 0.00 0.00 41 1018.8
20260503174032 15 170 0.0 0.0 0.00 0.00 0.00 43 1018.8
20260503173527 15 147 0.0 0.0 0.00 0.00 0.00 41 1018.9
20260503173024 15 204 1.6 1.6 0.00 0.00 0.00 45 1018.8
20260503172521 15 215 0.0 0.0 0.00 0.00 0.00 42 1018.8
20260503172018 15 156 0.0 0.0 0.00 0.00 0.00 43 1019.0
20260503171515 15 163 0.0 0.0 0.00 0.00 0.00 46 1019.2
20260503171012 15 178 0.0 0.0 0.00 0.00 0.00 44 1019.3
20260503170508 15 188 3.2 4.8 0.00 0.00 0.00 42 1019.1
20260503150901 13 125 0.0 0.0 0.00 0.00 0.00 49 1020.3
20260503150357 13 165 0.0 0.0 0.00 0.00 0.00 54 1020.1
20260503131250 8 171 0.0 0.0 0.00 0.00 0.00 83 1020.1
20260503130748 7 175 0.0 0.0 0.00 0.00 0.00 87 1020.1
20260503130245 6 176 0.0 0.0 0.00 0.00 0.00 93 1020.0
20260503120211 5 183 0.0 0.0 0.00 0.00 0.00 96 1019.7
20260503110633 4 181 0.0 0.0 0.00 0.00 0.00 96 1018.8
20260503110130 4 181 0.0 0.0 0.00 0.00 0.00 96 1018.7